| time (UTC) | temp F | wind direction | speed MPH | gust MPH | rain 1hr in | rain 24hr in | rain mn in | humidity % | barometer mb |
| 20260904173822 | 73 | 216 | 3.0 | 5.0 | 0.00 | 0.00 | 0.00 | 53 | 1013.9 |
| 20260904173314 | 73 | 236 | 1.0 | 4.0 | 0.00 | 0.00 | 0.00 | 54 | 1013.9 |
| 20260904172825 | 73 | 276 | 1.0 | 6.0 | 0.00 | 0.00 | 0.00 | 55 | 1013.9 |
| 20260904172316 | 72 | 245 | 2.0 | 6.0 | 0.00 | 0.00 | 0.00 | 56 | 1013.9 |
| 20260904171829 | 71 | 314 | 4.0 | 6.0 | 0.00 | 0.00 | 0.00 | 56 | 1013.8 |
| 20260904171319 | 71 | 58 | 1.0 | 3.0 | 0.00 | 0.00 | 0.00 | 57 | 1013.9 |
| 20260904170851 | 71 | 58 | 1.0 | 2.0 | 0.00 | 0.00 | 0.00 | 59 | 1013.8 |
| 20260904170321 | 70 | 40 | 0.0 | 4.0 | 0.00 | 0.00 | 0.00 | 58 | 1013.7 |
| 20260904165816 | 69 | 18 | 2.0 | 6.0 | 0.00 | 0.00 | 0.00 | 61 | 1013.8 |
| 20260904165329 | 69 | 315 | 3.0 | 6.0 | 0.00 | 0.00 | 0.00 | 62 | 1013.9 |
| 20260904164821 | 69 | 304 | 1.0 | 5.0 | 0.00 | 0.00 | 0.00 | 64 | 1013.7 |
| 20260904164312 | 68 | 306 | 1.0 | 5.0 | 0.00 | 0.00 | 0.00 | 64 | 1013.7 |
| 20260904163824 | 68 | 314 | 2.0 | 5.0 | 0.00 | 0.00 | 0.00 | 64 | 1013.6 |
| 20260904163315 | 68 | 296 | 0.0 | 4.0 | 0.00 | 0.00 | 0.00 | 65 | 1013.6 |
| 20260904162827 | 67 | 316 | 1.0 | 4.0 | 0.00 | 0.00 | 0.00 | 65 | 1013.5 |
| 20260904162320 | 68 | 304 | 0.0 | 6.0 | 0.00 | 0.00 | 0.00 | 65 | 1013.5 |
| 20260904161815 | 67 | 7 | 1.0 | 6.0 | 0.00 | 0.00 | 0.00 | 66 | 1013.4 |
| 20260904161326 | 67 | 300 | 1.0 | 3.0 | 0.00 | 0.00 | 0.00 | 65 | 1013.4 |
| 20260904160818 | 67 | 8 | 0.0 | 3.0 | 0.00 | 0.00 | 0.00 | 62 | 1013.3 |
| 20260904160331 | 67 | 304 | 0.0 | 0.0 | 0.00 | 0.00 | 0.00 | 62 | 1013.2 |
| 20260904155821 | 67 | 48 | 0.0 | 0.0 | 0.00 | 0.00 | 0.00 | 65 | 1013.2 |
| 20260904155312 | 67 | 261 | 0.0 | 0.0 | 0.00 | 0.00 | 0.00 | 64 | 1013.3 |
| 20260904154825 | 67 | 270 | 0.0 | 0.0 | 0.00 | 0.00 | 0.00 | 65 | 1013.3 |
| 20260904154336 | 66 | 264 | 0.0 | 1.0 | 0.00 | 0.00 | 0.00 | 65 | 1013.2 |
| 20260904153829 | 67 | 272 | 0.0 | 1.0 | 0.00 | 0.00 | 0.00 | 63 | 1013.3 |
| 20260904153321 | 66 | 196 | 0.0 | 0.0 | 0.00 | 0.00 | 0.00 | 65 | 1013.3 |
| 20260904152816 | 66 | 210 | 0.0 | 0.0 | 0.00 | 0.00 | 0.00 | 65 | 1013.3 |
| 20260904152348 | 66 | 90 | 0.0 | 0.0 | 0.00 | 0.00 | 0.00 | 65 | 1013.3 |
| 20260904151818 | 65 | 90 | 0.0 | 0.0 | 0.00 | 0.00 | 0.00 | 67 | 1013.4 |
| 20260904151350 | 66 | 90 | 0.0 | 0.0 | 0.00 | 0.00 | 0.00 | 63 | 1013.3 |
| 20260904150821 | 66 | 198 | 0.0 | 0.0 | 0.00 | 0.00 | 0.00 | 60 | 1013.3 |
| 20260904150312 | 65 | 198 | 0.0 | 0.0 | 0.00 | 0.00 | 0.00 | 60 | 1013.4 |
| 20260904145823 | 64 | 198 | 0.0 | 0.0 | 0.00 | 0.00 | 0.00 | 61 | 1013.3 |
| 20260904145314 | 63 | 198 | 0.0 | 0.0 | 0.00 | 0.00 | 0.00 | 60 | 1013.3 |
| 20260904144826 | 63 | 202 | 0.0 | 0.0 | 0.00 | 0.00 | 0.00 | 60 | 1013.3 |
| 20260904144321 | 64 | 202 | 0.0 | 0.0 | 0.00 | 0.00 | 0.00 | 60 | 1013.3 |
| 20260904143812 | 64 | 202 | 0.0 | 0.0 | 0.00 | 0.00 | 0.00 | 63 | 1013.4 |
| 20260904143323 | 62 | 202 | 0.0 | 0.0 | 0.00 | 0.00 | 0.00 | 71 | 1013.3 |
| 20260904142814 | 60 | 202 | 0.0 | 0.0 | 0.00 | 0.00 | 0.00 | 75 | 1013.3 |
| 20260904142346 | 58 | 202 | 0.0 | 0.0 | 0.00 | 0.00 | 0.00 | 78 | 1013.3 |
| 20260904141836 | 57 | 202 | 0.0 | 0.0 | 0.00 | 0.00 | 0.00 | 80 | 1013.2 |
| 20260904141348 | 55 | 202 | 0.0 | 0.0 | 0.00 | 0.00 | 0.00 | 82 | 1013.2 |
| 20260904140818 | 54 | 202 | 0.0 | 0.0 | 0.00 | 0.00 | 0.00 | 83 | 1013.2 |
| 20260904140330 | 53 | 202 | 0.0 | 0.0 | 0.00 | 0.00 | 0.00 | 83 | 1013.1 |
| 20260904135822 | 53 | 202 | 0.0 | 0.0 | 0.00 | 0.00 | 0.00 | 83 | 1013.1 |
| 20260904135317 | 53 | 202 | 0.0 | 0.0 | 0.00 | 0.00 | 0.00 | 83 | 1013.0 |
| 20260904134828 | 53 | 202 | 0.0 | 0.0 | 0.00 | 0.00 | 0.00 | 83 | 1013.0 |
| 20260904134319 | 53 | 202 | 0.0 | 0.0 | 0.00 | 0.00 | 0.00 | 83 | 1012.8 |
| 20260904133831 | 53 | 202 | 0.0 | 0.0 | 0.00 | 0.00 | 0.00 | 82 | 1012.9 |
| 20260904133343 | 53 | 202 | 0.0 | 0.0 | 0.00 | 0.00 | 0.00 | 82 | 1012.8 |
| 20260904132812 | 53 | 202 | 0.0 | 0.0 | 0.00 | 0.00 | 0.00 | 81 | 1012.8 |
| 20260904132323 | 53 | 202 | 0.0 | 0.0 | 0.00 | 0.00 | 0.00 | 81 | 1012.7 |
| 20260904131814 | 53 | 202 | 0.0 | 0.0 | 0.00 | 0.00 | 0.00 | 81 | 1012.8 |
| 20260904131326 | 54 | 202 | 0.0 | 0.0 | 0.00 | 0.00 | 0.00 | 81 | 1012.8 |
| 20260904130818 | 54 | 202 | 0.0 | 0.0 | 0.00 | 0.00 | 0.00 | 81 | 1012.7 |
| 20260904130312 | 54 | 202 | 0.0 | 0.0 | 0.00 | 0.00 | 0.00 | 81 | 1012.6 |
| 20260904125823 | 54 | 202 | 0.0 | 0.0 | 0.00 | 0.00 | 0.00 | 81 | 1012.6 |
| 20260904125316 | 54 | 202 | 0.0 | 0.0 | 0.00 | 0.00 | 0.00 | 80 | 1012.6 |
| 20260904124827 | 54 | 202 | 0.0 | 0.0 | 0.00 | 0.00 | 0.00 | 79 | 1012.5 |
| 20260904124339 | 54 | 202 | 0.0 | 0.0 | 0.00 | 0.00 | 0.00 | 79 | 1012.6 |
| 20260904123830 | 54 | 202 | 0.0 | 0.0 | 0.00 | 0.00 | 0.00 | 79 | 1012.5 |
| 20260904123321 | 55 | 202 | 0.0 | 0.0 | 0.00 | 0.00 | 0.00 | 79 | 1012.5 |
| 20260904122812 | 55 | 202 | 0.0 | 0.0 | 0.00 | 0.00 | 0.00 | 79 | 1012.5 |
| 20260904122323 | 55 | 202 | 0.0 | 0.0 | 0.00 | 0.00 | 0.00 | 79 | 1012.4 |
| 20260904121818 | 55 | 202 | 0.0 | 0.0 | 0.00 | 0.00 | 0.00 | 80 | 1012.4 |
| 20260904121330 | 55 | 202 | 0.0 | 0.0 | 0.00 | 0.00 | 0.00 | 80 | 1012.5 |
| 20260904120821 | 55 | 202 | 0.0 | 0.0 | 0.00 | 0.00 | 0.00 | 80 | 1012.4 |
| 20260904120313 | 55 | 202 | 0.0 | 0.0 | 0.00 | 0.00 | 0.00 | 79 | 1012.5 |
| 20260904115826 | 55 | 202 | 0.0 | 0.0 | 0.00 | 0.00 | 0.00 | 79 | 1012.5 |
| 20260904115317 | 55 | 202 | 0.0 | 0.0 | 0.00 | 0.00 | 0.00 | 79 | 1012.6 |
| 20260904114827 | 55 | 202 | 0.0 | 0.0 | 0.00 | 0.00 | 0.00 | 78 | 1012.6 |
| 20260904114318 | 55 | 202 | 0.0 | 0.0 | 0.00 | 0.00 | 0.00 | 78 | 1012.5 |
| 20260904113850 | 55 | 202 | 0.0 | 0.0 | 0.00 | 0.00 | 0.00 | 78 | 1012.6 |
| 20260904113320 | 55 | 202 | 0.0 | 0.0 | 0.00 | 0.00 | 0.00 | 78 | 1012.5 |
| 20260904112816 | 55 | 202 | 0.0 | 0.0 | 0.00 | 0.00 | 0.00 | 78 | 1012.4 |
| 20260904112328 | 55 | 202 | 0.0 | 0.0 | 0.00 | 0.00 | 0.00 | 78 | 1012.4 |
| 20260904111819 | 55 | 202 | 0.0 | 0.0 | 0.00 | 0.00 | 0.00 | 78 | 1012.4 |
| 20260904111330 | 55 | 202 | 0.0 | 0.0 | 0.00 | 0.00 | 0.00 | 78 | 1012.4 |
| 20260904110823 | 55 | 202 | 0.0 | 0.0 | 0.00 | 0.00 | 0.00 | 79 | 1012.4 |
| 20260904110315 | 55 | 202 | 0.0 | 0.0 | 0.00 | 0.00 | 0.00 | 79 | 1012.5 |
| 20260904105826 | 56 | 202 | 0.0 | 0.0 | 0.00 | 0.00 | 0.00 | 79 | 1012.4 |
| 20260904105338 | 56 | 202 | 0.0 | 0.0 | 0.00 | 0.00 | 0.00 | 79 | 1012.3 |
| 20260904104827 | 56 | 202 | 0.0 | 0.0 | 0.00 | 0.00 | 0.00 | 79 | 1012.3 |
| 20260904104324 | 56 | 202 | 0.0 | 0.0 | 0.00 | 0.00 | 0.00 | 79 | 1012.3 |
| 20260904103835 | 57 | 202 | 0.0 | 0.0 | 0.00 | 0.00 | 0.00 | 80 | 1012.4 |
| 20260904103326 | 57 | 202 | 0.0 | 0.0 | 0.00 | 0.00 | 0.00 | 80 | 1012.3 |
| 20260904102818 | 57 | 202 | 0.0 | 0.0 | 0.00 | 0.00 | 0.00 | 81 | 1012.2 |
| 20260904102328 | 57 | 202 | 0.0 | 0.0 | 0.00 | 0.00 | 0.00 | 82 | 1012.3 |
| 20260904101819 | 57 | 202 | 0.0 | 0.0 | 0.00 | 0.00 | 0.00 | 83 | 1012.2 |
| 20260904101351 | 58 | 202 | 0.0 | 0.0 | 0.00 | 0.00 | 0.00 | 84 | 1012.3 |
| 20260904100821 | 58 | 202 | 0.0 | 0.0 | 0.00 | 0.00 | 0.00 | 84 | 1012.3 |
| 20260904100313 | 58 | 202 | 0.0 | 0.0 | 0.00 | 0.00 | 0.00 | 84 | 1012.4 |
| 20260904095824 | 58 | 202 | 0.0 | 0.0 | 0.00 | 0.00 | 0.00 | 83 | 1012.3 |
| 20260904095318 | 58 | 202 | 0.0 | 0.0 | 0.00 | 0.00 | 0.00 | 83 | 1012.3 |
| 20260904094829 | 59 | 202 | 0.0 | 0.0 | 0.00 | 0.00 | 0.00 | 83 | 1012.3 |
| 20260904094320 | 59 | 202 | 0.0 | 0.0 | 0.00 | 0.00 | 0.00 | 83 | 1012.3 |
| 20260904093811 | 59 | 202 | 0.0 | 0.0 | 0.00 | 0.00 | 0.00 | 83 | 1012.3 |
| 20260904093324 | 59 | 202 | 0.0 | 0.0 | 0.00 | 0.00 | 0.00 | 82 | 1012.3 |
| 20260904092815 | 59 | 202 | 0.0 | 0.0 | 0.00 | 0.00 | 0.00 | 82 | 1012.2 |
| 20260904092327 | 59 | 202 | 0.0 | 0.0 | 0.00 | 0.00 | 0.00 | 81 | 1012.3 |
| 20260904091817 | 58 | 202 | 0.0 | 0.0 | 0.00 | 0.00 | 0.00 | 80 | 1012.3 |
| 20260904091312 | 58 | 202 | 0.0 | 0.0 | 0.00 | 0.00 | 0.00 | 80 | 1012.1 |
| 20260904090846 | 58 | 202 | 0.0 | 0.0 | 0.00 | 0.00 | 0.00 | 79 | 1012.1 |
| 20260904090316 | 58 | 202 | 0.0 | 0.0 | 0.00 | 0.00 | 0.00 | 78 | 1012.1 |
| 20260904085826 | 59 | 202 | 0.0 | 0.0 | 0.00 | 0.00 | 0.00 | 78 | 1012.3 |
| 20260904085318 | 59 | 202 | 0.0 | 0.0 | 0.00 | 0.00 | 0.00 | 77 | 1012.4 |
| 20260904084829 | 59 | 202 | 0.0 | 0.0 | 0.00 | 0.00 | 0.00 | 77 | 1012.3 |
| 20260904084340 | 59 | 202 | 0.0 | 0.0 | 0.00 | 0.00 | 0.00 | 77 | 1012.4 |
| 20260904083811 | 59 | 202 | 0.0 | 0.0 | 0.00 | 0.00 | 0.00 | 78 | 1012.3 |
| 20260904083322 | 59 | 202 | 0.0 | 0.0 | 0.00 | 0.00 | 0.00 | 78 | 1012.3 |
| 20260904082812 | 59 | 202 | 0.0 | 0.0 | 0.00 | 0.00 | 0.00 | 78 | 1012.4 |
| 20260904082324 | 60 | 202 | 0.0 | 0.0 | 0.00 | 0.00 | 0.00 | 79 | 1012.4 |
| 20260904081840 | 60 | 202 | 0.0 | 0.0 | 0.00 | 0.00 | 0.00 | 79 | 1012.4 |
| 20260904081330 | 60 | 202 | 0.0 | 0.0 | 0.00 | 0.00 | 0.00 | 79 | 1012.5 |
| 20260904080820 | 60 | 202 | 0.0 | 0.0 | 0.00 | 0.00 | 0.00 | 79 | 1012.5 |
| 20260904080311 | 60 | 202 | 0.0 | 0.0 | 0.00 | 0.00 | 0.00 | 79 | 1012.6 |
| 20260904075822 | 60 | 202 | 0.0 | 0.0 | 0.00 | 0.00 | 0.00 | 79 | 1012.6 |
| 20260904075314 | 60 | 202 | 0.0 | 0.0 | 0.00 | 0.00 | 0.00 | 78 | 1012.6 |
| 20260904074845 | 60 | 202 | 0.0 | 0.0 | 0.00 | 0.00 | 0.00 | 78 | 1012.6 |
| 20260904074335 | 60 | 202 | 0.0 | 0.0 | 0.00 | 0.00 | 0.00 | 77 | 1012.6 |
| 20260904073826 | 61 | 202 | 0.0 | 0.0 | 0.00 | 0.00 | 0.00 | 77 | 1012.6 |
| 20260904073319 | 61 | 202 | 0.0 | 0.0 | 0.00 | 0.00 | 0.00 | 77 | 1012.7 |
| 20260904072815 | 61 | 202 | 0.0 | 0.0 | 0.00 | 0.00 | 0.00 | 76 | 1012.7 |
| 20260904072326 | 61 | 202 | 0.0 | 0.0 | 0.00 | 0.00 | 0.00 | 76 | 1012.6 |
| 20260904071817 | 61 | 202 | 0.0 | 0.0 | 0.00 | 0.00 | 0.00 | 76 | 1012.6 |
| 20260904071349 | 62 | 202 | 0.0 | 0.0 | 0.00 | 0.00 | 0.00 | 76 | 1012.6 |
| 20260904070819 | 62 | 202 | 0.0 | 0.0 | 0.00 | 0.00 | 0.00 | 75 | 1012.5 |
| 20260904070331 | 62 | 202 | 0.0 | 0.0 | 0.00 | 0.00 | 0.00 | 75 | 1012.4 |
| 20260904065823 | 62 | 202 | 0.0 | 0.0 | 0.00 | 0.00 | 0.00 | 74 | 1012.4 |
| 20260904065313 | 63 | 202 | 0.0 | 0.0 | 0.00 | 0.00 | 0.00 | 73 | 1012.4 |
| 20260904064845 | 63 | 202 | 0.0 | 0.0 | 0.00 | 0.00 | 0.00 | 72 | 1012.4 |
| 20260904064315 | 63 | 202 | 0.0 | 0.0 | 0.00 | 0.00 | 0.00 | 71 | 1012.4 |
| 20260904063826 | 63 | 202 | 0.0 | 0.0 | 0.00 | 0.00 | 0.00 | 70 | 1012.4 |
| 20260904063343 | 63 | 202 | 0.0 | 0.0 | 0.00 | 0.00 | 0.00 | 71 | 1012.4 |
| 20260904062813 | 63 | 202 | 0.0 | 0.0 | 0.00 | 0.00 | 0.00 | 71 | 1012.3 |
| 20260904062324 | 64 | 202 | 0.0 | 0.0 | 0.00 | 0.00 | 0.00 | 72 | 1012.3 |
| 20260904061815 | 63 | 202 | 0.0 | 0.0 | 0.00 | 0.00 | 0.00 | 74 | 1012.3 |
| 20260904061327 | 63 | 202 | 0.0 | 0.0 | 0.00 | 0.00 | 0.00 | 75 | 1012.4 |
| 20260904060817 | 64 | 202 | 0.0 | 0.0 | 0.00 | 0.00 | 0.00 | 75 | 1012.3 |
| 20260904060328 | 64 | 202 | 0.0 | 0.0 | 0.00 | 0.00 | 0.00 | 75 | 1012.4 |
| 20260904055817 | 64 | 202 | 0.0 | 0.0 | 0.00 | 0.00 | 0.00 | 75 | 1012.5 |
| 20260904055329 | 65 | 202 | 0.0 | 0.0 | 0.00 | 0.00 | 0.00 | 75 | 1012.5 |
| 20260904054822 | 65 | 202 | 0.0 | 0.0 | 0.00 | 0.00 | 0.00 | 74 | 1012.6 |
| 20260904054316 | 65 | 202 | 0.0 | 0.0 | 0.00 | 0.00 | 0.00 | 74 | 1012.6 |
| 20260904053828 | 65 | 202 | 0.0 | 0.0 | 0.00 | 0.00 | 0.00 | 74 | 1012.7 |
| 20260904053319 | 65 | 202 | 0.0 | 0.0 | 0.00 | 0.00 | 0.00 | 74 | 1012.7 |
| 20260904052831 | 66 | 202 | 0.0 | 0.0 | 0.00 | 0.00 | 0.00 | 73 | 1012.7 |
| 20260904052321 | 66 | 202 | 0.0 | 4.0 | 0.00 | 0.00 | 0.00 | 73 | 1012.8 |
| 20260904051813 | 66 | 202 | 2.0 | 4.0 | 0.00 | 0.00 | 0.00 | 73 | 1012.8 |
| 20260904051324 | 66 | 269 | 1.0 | 4.0 | 0.00 | 0.00 | 0.00 | 72 | 1012.8 |
| 20260904050815 | 66 | 221 | 1.0 | 4.0 | 0.00 | 0.00 | 0.00 | 71 | 1012.7 |
| 20260904050326 | 67 | 226 | 0.0 | 6.0 | 0.00 | 0.00 | 0.00 | 71 | 1012.7 |
| 20260904045838 | 67 | 212 | 3.0 | 6.0 | 0.00 | 0.00 | 0.00 | 70 | 1012.7 |
| 20260904045312 | 67 | 204 | 2.0 | 6.0 | 0.00 | 0.00 | 0.00 | 69 | 1012.6 |
| 20260904044824 | 67 | 274 | 1.0 | 3.0 | 0.00 | 0.00 | 0.00 | 68 | 1012.5 |
| 20260904044315 | 67 | 246 | 0.0 | 3.0 | 0.00 | 0.00 | 0.00 | 67 | 1012.4 |
| 20260904043827 | 67 | 243 | 1.0 | 3.0 | 0.00 | 0.00 | 0.00 | 67 | 1012.5 |
| 20260904043318 | 68 | 210 | 0.0 | 5.0 | 0.00 | 0.00 | 0.00 | 66 | 1012.4 |
| 20260904042850 | 68 | 210 | 2.0 | 6.0 | 0.00 | 0.00 | 0.00 | 66 | 1012.3 |
| 20260904042320 | 68 | 221 | 3.0 | 6.0 | 0.00 | 0.00 | 0.00 | 65 | 1012.4 |
| 20260904041812 | 68 | 202 | 2.0 | 4.0 | 0.00 | 0.00 | 0.00 | 65 | 1012.3 |
| 20260904041324 | 68 | 200 | 2.0 | 4.0 | 0.00 | 0.00 | 0.00 | 65 | 1012.4 |
| 20260904040841 | 68 | 264 | 0.0 | 4.0 | 0.00 | 0.00 | 0.00 | 65 | 1012.3 |
| 20260904040330 | 68 | 234 | 1.0 | 4.0 | 0.00 | 0.00 | 0.00 | 65 | 1012.3 |
| 20260904035821 | 68 | 222 | 0.0 | 4.0 | 0.00 | 0.00 | 0.00 | 64 | 1012.2 |
| 20260904035312 | 69 | 243 | 0.0 | 1.0 | 0.00 | 0.00 | 0.00 | 64 | 1012.2 |
| 20260904034826 | 69 | 255 | 0.0 | 7.0 | 0.00 | 0.00 | 0.00 | 64 | 1012.1 |
| 20260904034318 | 69 | 213 | 1.0 | 7.0 | 0.00 | 0.00 | 0.00 | 63 | 1012.1 |
| 20260904033829 | 69 | 228 | 2.0 | 5.0 | 0.00 | 0.00 | 0.00 | 63 | 1012.1 |
| 20260904033320 | 70 | 238 | 2.0 | 5.0 | 0.00 | 0.00 | 0.00 | 63 | 1012.1 |
| 20260904032811 | 70 | 248 | 2.0 | 5.0 | 0.00 | 0.00 | 0.00 | 62 | 1012.1 |
| 20260904032327 | 70 | 238 | 3.0 | 5.0 | 0.00 | 0.00 | 0.00 | 62 | 1012.0 |
| 20260904031818 | 70 | 236 | 0.0 | 0.0 | 0.00 | 0.00 | 0.00 | 61 | 1012.0 |
| 20260904031329 | 70 | 210 | 0.0 | 0.0 | 0.00 | 0.00 | 0.00 | 60 | 1012.0 |
| 20260904030840 | 71 | 204 | 0.0 | 3.0 | 0.00 | 0.00 | 0.00 | 60 | 1011.9 |
| 20260904030350 | 71 | 257 | 0.0 | 3.0 | 0.00 | 0.00 | 0.00 | 59 | 1011.8 |
| 20260904025819 | 71 | 254 | 0.0 | 4.0 | 0.00 | 0.00 | 0.00 | 59 | 1011.9 |
| 20260904025352 | 71 | 266 | 1.0 | 4.0 | 0.00 | 0.00 | 0.00 | 58 | 1011.8 |
| 20260904024822 | 71 | 235 | 0.0 | 1.0 | 0.00 | 0.00 | 0.00 | 58 | 1011.7 |
| 20260904024313 | 72 | 233 | 0.0 | 4.0 | 0.00 | 0.00 | 0.00 | 57 | 1011.7 |
| 20260904023824 | 72 | 235 | 1.0 | 5.0 | 0.00 | 0.00 | 0.00 | 56 | 1011.6 |
| 20260904023315 | 72 | 240 | 1.0 | 5.0 | 0.00 | 0.00 | 0.00 | 56 | 1011.7 |
| 20260904022831 | 72 | 224 | 1.0 | 4.0 | 0.00 | 0.00 | 0.00 | 55 | 1011.7 |
| 20260904022322 | 73 | 247 | 1.0 | 4.0 | 0.00 | 0.00 | 0.00 | 54 | 1011.6 |
| 20260904021813 | 73 | 292 | 0.0 | 6.0 | 0.00 | 0.00 | 0.00 | 53 | 1011.6 |
| 20260904021345 | 73 | 272 | 3.0 | 6.0 | 0.00 | 0.00 | 0.00 | 52 | 1011.6 |
| 20260904020814 | 74 | 266 | 2.0 | 5.0 | 0.00 | 0.00 | 0.00 | 50 | 1011.6 |
| 20260904020325 | 74 | 262 | 1.0 | 7.0 | 0.00 | 0.00 | 0.00 | 49 | 1011.6 |
| 20260904015817 | 74 | 226 | 0.0 | 8.0 | 0.00 | 0.00 | 0.00 | 49 | 1011.6 |
| 20260904015328 | 75 | 276 | 2.0 | 8.0 | 0.00 | 0.00 | 0.00 | 49 | 1011.6 |
| 20260904014820 | 75 | 200 | 1.0 | 10.0 | 0.00 | 0.00 | 0.00 | 48 | 1011.5 |
| 20260904014314 | 76 | 224 | 4.0 | 10.0 | 0.00 | 0.00 | 0.00 | 47 | 1011.5 |
| 20260904013825 | 76 | 224 | 2.0 | 8.0 | 0.00 | 0.00 | 0.00 | 47 | 1011.4 |
| 20260904013316 | 76 | 220 | 4.0 | 7.0 | 0.00 | 0.00 | 0.00 | 46 | 1011.4 |
| 20260904012829 | 77 | 250 | 2.0 | 11.0 | 0.00 | 0.00 | 0.00 | 45 | 1011.3 |
| 20260904012322 | 77 | 238 | 5.0 | 15.0 | 0.00 | 0.00 | 0.00 | 44 | 1011.3 |
| 20260904011814 | 77 | 242 | 8.0 | 15.0 | 0.00 | 0.00 | 0.00 | 43 | 1011.2 |
| 20260904011324 | 78 | 245 | 7.0 | 15.0 | 0.00 | 0.00 | 0.00 | 42 | 1011.2 |
| 20260904010815 | 79 | 251 | 4.0 | 13.0 | 0.00 | 0.00 | 0.00 | 41 | 1011.1 |
| 20260904010327 | 79 | 217 | 5.0 | 12.0 | 0.00 | 0.00 | 0.00 | 40 | 1011.0 |
| 20260904005822 | 80 | 219 | 6.0 | 13.0 | 0.00 | 0.00 | 0.00 | 40 | 1011.1 |
| 20260904005314 | 80 | 239 | 8.0 | 14.0 | 0.00 | 0.00 | 0.00 | 39 | 1011.0 |
| 20260904004847 | 81 | 283 | 6.0 | 15.0 | 0.00 | 0.00 | 0.00 | 38 | 1011.0 |
| 20260904004316 | 81 | 264 | 6.0 | 15.0 | 0.00 | 0.00 | 0.00 | 37 | 1011.0 |
| 20260904003828 | 82 | 222 | 7.0 | 14.0 | 0.00 | 0.00 | 0.00 | 35 | 1011.0 |
| 20260904003341 | 82 | 221 | 7.0 | 14.0 | 0.00 | 0.00 | 0.00 | 35 | 1010.9 |
| 20260904002831 | 83 | 218 | 6.0 | 11.0 | 0.00 | 0.00 | 0.00 | 33 | 1010.9 |
| 20260904002323 | 83 | 290 | 5.0 | 11.0 | 0.00 | 0.00 | 0.00 | 33 | 1010.8 |
| 20260904001814 | 84 | 209 | 4.0 | 12.0 | 0.00 | 0.00 | 0.00 | 33 | 1010.8 |
| 20260904001326 | 84 | 188 | 3.0 | 12.0 | 0.00 | 0.00 | 0.00 | 33 | 1010.9 |
| 20260904000821 | 84 | 179 | 5.0 | 12.0 | 0.00 | 0.00 | 0.00 | 33 | 1010.9 |
| 20260904000312 | 84 | 212 | 5.0 | 12.0 | 0.00 | 0.00 | 0.00 | 32 | 1010.7 |
| 20260903235823 | 84 | 216 | 7.0 | 13.0 | 0.00 | 0.00 | 0.00 | 32 | 1010.7 |
| 20260903235313 | 84 | 261 | 4.0 | 13.0 | 0.00 | 0.00 | 0.00 | 31 | 1010.7 |
| 20260903234846 | 84 | 225 | 7.0 | 12.0 | 0.00 | 0.00 | 0.00 | 30 | 1010.8 |
| 20260903234336 | 85 | 225 | 6.0 | 12.0 | 0.00 | 0.00 | 0.00 | 29 | 1010.7 |
| 20260903233827 | 85 | 264 | 6.0 | 12.0 | 0.00 | 0.00 | 0.00 | 29 | 1010.8 |
| 20260903233320 | 85 | 291 | 4.0 | 13.0 | 0.00 | 0.00 | 0.00 | 28 | 1010.9 |
| 20260903232852 | 85 | 219 | 5.0 | 13.0 | 0.00 | 0.00 | 0.00 | 28 | 1010.9 |
| 20260903232323 | 85 | 250 | 6.0 | 13.0 | 0.00 | 0.00 | 0.00 | 29 | 1011.0 |
| 20260903231818 | 86 | 207 | 4.0 | 14.0 | 0.00 | 0.00 | 0.00 | 28 | 1011.0 |
| 20260903231329 | 86 | 212 | 6.0 | 14.0 | 0.00 | 0.00 | 0.00 | 27 | 1011.1 |
| 20260903230820 | 86 | 214 | 5.0 | 12.0 | 0.00 | 0.00 | 0.00 | 27 | 1011.1 |
| 20260903230331 | 86 | 223 | 4.0 | 10.0 | 0.00 | 0.00 | 0.00 | 27 | 1011.1 |
| 20260903225843 | 87 | 249 | 4.0 | 10.0 | 0.00 | 0.00 | 0.00 | 26 | 1011.1 |
| 20260903225313 | 87 | 215 | 3.0 | 8.0 | 0.00 | 0.00 | 0.00 | 26 | 1011.1 |
| 20260903224823 | 87 | 225 | 3.0 | 8.0 | 0.00 | 0.00 | 0.00 | 25 | 1011.1 |
| 20260903224315 | 88 | 206 | 4.0 | 8.0 | 0.00 | 0.00 | 0.00 | 24 | 1011.1 |
| 20260903223821 | 88 | 278 | 2.0 | 8.0 | 0.00 | 0.00 | 0.00 | 22 | 1011.1 |
| 20260903223312 | 88 | 197 | 4.0 | 8.0 | 0.00 | 0.00 | 0.00 | 23 | 1011.2 |
| 20260903222830 | 87 | 210 | 3.0 | 7.0 | 0.00 | 0.00 | 0.00 | 24 | 1011.2 |
| 20260903222321 | 88 | 266 | 3.0 | 8.0 | 0.00 | 0.00 | 0.00 | 24 | 1011.2 |
| 20260903221833 | 89 | 248 | 4.0 | 8.0 | 0.00 | 0.00 | 0.00 | 23 | 1011.2 |
| 20260903221322 | 88 | 193 | 4.0 | 8.0 | 0.00 | 0.00 | 0.00 | 23 | 1011.2 |
| 20260903220812 | 87 | 193 | 3.0 | 6.0 | 0.00 | 0.00 | 0.00 | 22 | 1011.3 |
| 20260903220324 | 87 | 251 | 3.0 | 6.0 | 0.00 | 0.00 | 0.00 | 21 | 1011.4 |
| 20260903215817 | 87 | 319 | 1.0 | 6.0 | 0.00 | 0.00 | 0.00 | 21 | 1011.4 |
| 20260903215327 | 87 | 212 | 3.0 | 8.0 | 0.00 | 0.00 | 0.00 | 21 | 1011.4 |
| 20260903214817 | 87 | 209 | 3.0 | 9.0 | 0.00 | 0.00 | 0.00 | 21 | 1011.6 |
| 20260903214328 | 88 | 214 | 5.0 | 9.0 | 0.00 | 0.00 | 0.00 | 20 | 1011.7 |
| 20260903213819 | 88 | 103 | 2.0 | 9.0 | 0.00 | 0.00 | 0.00 | 19 | 1011.8 |
| 20260903213335 | 87 | 218 | 3.0 | 9.0 | 0.00 | 0.00 | 0.00 | 18 | 1011.9 |
| 20260903212827 | 86 | 132 | 1.0 | 10.0 | 0.00 | 0.00 | 0.00 | 19 | 1011.8 |
| 20260903212317 | 86 | 156 | 5.0 | 10.0 | 0.00 | 0.00 | 0.00 | 19 | 1012.0 |
| 20260903211828 | 86 | 232 | 4.0 | 8.0 | 0.00 | 0.00 | 0.00 | 17 | 1012.1 |
| 20260903211320 | 86 | 245 | 3.0 | 8.0 | 0.00 | 0.00 | 0.00 | 17 | 1012.1 |
| 20260903210831 | 86 | 223 | 4.0 | 8.0 | 0.00 | 0.00 | 0.00 | 18 | 1012.0 |
| 20260903210322 | 86 | 281 | 3.0 | 8.0 | 0.00 | 0.00 | 0.00 | 20 | 1012.1 |
| 20260903205834 | 86 | 145 | 1.0 | 11.0 | 0.00 | 0.00 | 0.00 | 21 | 1012.1 |
| 20260903205324 | 85 | 240 | 6.0 | 11.0 | 0.00 | 0.00 | 0.00 | 21 | 1012.3 |
| 20260903204818 | 85 | 206 | 4.0 | 11.0 | 0.00 | 0.00 | 0.00 | 23 | 1012.3 |
| 20260903204329 | 86 | 213 | 4.0 | 10.0 | 0.00 | 0.00 | 0.00 | 24 | 1012.4 |
| 20260903203840 | 86 | 268 | 2.0 | 7.0 | 0.00 | 0.00 | 0.00 | 24 | 1012.4 |
| 20260903203331 | 85 | 271 | 2.0 | 8.0 | 0.00 | 0.00 | 0.00 | 25 | 1012.4 |
| 20260903202823 | 84 | 203 | 2.0 | 8.0 | 0.00 | 0.00 | 0.00 | 26 | 1012.4 |
| 20260903202314 | 84 | 321 | 2.0 | 11.0 | 0.00 | 0.00 | 0.00 | 26 | 1012.4 |
| 20260903201825 | 84 | 319 | 4.0 | 11.0 | 0.00 | 0.00 | 0.00 | 26 | 1012.6 |
| 20260903201316 | 84 | 218 | 6.0 | 9.0 | 0.00 | 0.00 | 0.00 | 27 | 1012.5 |
| 20260903200827 | 84 | 312 | 3.0 | 9.0 | 0.00 | 0.00 | 0.00 | 28 | 1012.5 |
| 20260903200338 | 84 | 271 | 3.0 | 8.0 | 0.00 | 0.00 | 0.00 | 27 | 1012.6 |
| 20260903195813 | 84 | 255 | 3.0 | 7.0 | 0.00 | 0.00 | 0.00 | 28 | 1012.6 |
| 20260903195324 | 83 | 290 | 1.0 | 11.0 | 0.00 | 0.00 | 0.00 | 28 | 1012.7 |
| 20260903194814 | 83 | 219 | 6.0 | 11.0 | 0.00 | 0.00 | 0.00 | 28 | 1012.8 |
| 20260903194326 | 83 | 288 | 4.0 | 8.0 | 0.00 | 0.00 | 0.00 | 27 | 1012.8 |
| 20260903193817 | 83 | 309 | 1.0 | 9.0 | 0.00 | 0.00 | 0.00 | 28 | 1013.0 |
| 20260903193328 | 82 | 314 | 3.0 | 9.0 | 0.00 | 0.00 | 0.00 | 29 | 1013.1 |
| 20260903192818 | 82 | 256 | 4.0 | 7.0 | 0.00 | 0.00 | 0.00 | 28 | 1013.2 |
| 20260903192328 | 82 | 304 | 4.0 | 7.0 | 0.00 | 0.00 | 0.00 | 28 | 1013.2 |
| 20260903191819 | 82 | 259 | 2.0 | 9.0 | 0.00 | 0.00 | 0.00 | 29 | 1013.3 |
| 20260903191313 | 81 | 271 | 5.0 | 9.0 | 0.00 | 0.00 | 0.00 | 29 | 1013.4 |
| 20260903190825 | 81 | 300 | 3.0 | 7.0 | 0.00 | 0.00 | 0.00 | 29 | 1013.4 |
| 20260903190315 | 81 | 283 | 2.0 | 7.0 | 0.00 | 0.00 | 0.00 | 29 | 1013.5 |
| 20260903185826 | 81 | 264 | 2.0 | 7.0 | 0.00 | 0.00 | 0.00 | 29 | 1013.7 |
| 20260903185318 | 80 | 305 | 4.0 | 7.0 | 0.00 | 0.00 | 0.00 | 28 | 1013.8 |
| 20260903184849 | 81 | 221 | 2.0 | 5.0 | 0.00 | 0.00 | 0.00 | 28 | 1014.0 |
| 20260903184319 | 80 | 203 | 1.0 | 7.0 | 0.00 | 0.00 | 0.00 | 29 | 1014.0 |
| 20260903183831 | 80 | 219 | 3.0 | 8.0 | 0.00 | 0.00 | 0.00 | 30 | 1014.0 |
| 20260903183343 | 79 | 55 | 3.0 | 8.0 | 0.00 | 0.00 | 0.00 | 32 | 1013.9 |
| 20260903182812 | 79 | 198 | 4.0 | 7.0 | 0.00 | 0.00 | 0.00 | 32 | 1014.0 |
| 20260903182327 | 78 | 141 | 1.0 | 5.0 | 0.00 | 0.00 | 0.00 | 34 | 1014.1 |
| 20260903181839 | 77 | 294 | 2.0 | 5.0 | 0.00 | 0.00 | 0.00 | 35 | 1014.2 |
| 20260903181330 | 77 | 308 | 1.0 | 5.0 | 0.00 | 0.00 | 0.00 | 37 | 1014.3 |
| 20260903180821 | 77 | 98 | 1.0 | 9.0 | 0.00 | 0.00 | 0.00 | 37 | 1014.3 |
| 20260903180323 | 77 | 233 | 4.0 | 9.0 | 0.00 | 0.00 | 0.00 | 37 | 1014.3 |
| 20260903175813 | 77 | 221 | 2.0 | 6.0 | 0.00 | 0.00 | 0.00 | 37 | 1014.3 |
| 20260903175323 | 77 | 222 | 2.0 | 6.0 | 0.00 | 0.00 | 0.00 | 38 | 1014.4 |
| 20260903174816 | 77 | 205 | 1.0 | 4.0 | 0.00 | 0.00 | 0.00 | 39 | 1014.3 |
| 20260903174328 | 76 | 53 | 1.0 | 4.0 | 0.00 | 0.00 | 0.00 | 39 | 1014.4 |